Regional Weather Roundup
Issued by NWS Newport/Morehead, NC

Current Version | Previous Version | Text Only | Print | Product List | Glossary Off
Versions: 1 2 3 4 5 6 7 8 9 10 11 12 13 14 15 16 17 18 19 20 21 22 23 24 25 26 27 28 29 30 31 32 33 34 35 36 37 38 39 40 41 42 43 44 45 46 47 48 49 50
000 ASUS42 KMHX 202110 RWRMHX WEATHER ROUNDUP FOR EASTERN NORTH CAROLINA NATIONAL WEATHER SERVICE NEWPORT/MOREHEAD CITY NC 500 PM EDT SAT SEP 20 2014 NOTE: "FAIR" INDICATES FEW OR NO CLOUDS BELOW 12,000 FEET WITH NO SIGNIFICANT WEATHER AND/OR OBSTRUCTIONS TO VISIBILITY NCZ015>017-031-032-045>047-102-103-202200- NORTH COAST CITY SKY/WX TMP DP RH WIND PRES REMARKS EDENTON CLOUDY 74 68 80 NE10 30.05F ELIZABETH CITY CLOUDY 73 68 83 NE13 30.05F KITTY HAWK CLOUDY 73 71 91 NE9G18 30.02F MANTEO CLOUDY 73 70 89 NE10 30.04F $$ NCZ045>047-081-094-103-104-202200- CENTRAL COAST CITY SKY/WX TMP DP RH WIND PRES REMARKS FRISCO HVY RAIN 70 70 100 SE17 30.02S FOG SWANQUARTER N/A 73 N/A N/A VRB8G23 29.97F $$ NCZ095-097-098-100-101-202200- SOUTHERN COAST CITY SKY/WX TMP DP RH WIND PRES REMARKS BEAUFORT LGT RAIN 75 71 87 NE10 29.99F CEDAR ISLAND N/A 75 N/A N/A NE16G23 30.03F JACKSONVILLE CLOUDY 76 69 79 N9 29.98F NEWPORT NOT AVBL PINEY ISLAND CLOUDY 77 70 79 N18 29.99F WILMINGTON CLOUDY 76 68 76 NE16 29.97F $$ NCZ011>013-027>030-043-044-078>080-089-090>093-098-202200- COASTAL PLAIN CITY SKY/WX TMP DP RH WIND PRES REMARKS AHOSKIE PTSUNNY 75 65 71 E6 30.06S CLINTON CLOUDY 78 66 67 NE6 30.01F ELIZABETHTOWN CLOUDY 77 65 66 CALM 30.00F GOLDSBORO PTSUNNY 77 69 74 NE7 30.00F GREENVILLE CLOUDY 79 68 69 NE10 30.05S HAVELOCK CLOUDY 75 70 84 NE13 30.01F KENANSVILLE CLOUDY 77 64 65 N6 30.02F KINSTON CLOUDY 77 68 73 E8 30.03F NEW BERN CLOUDY 77 68 73 NE12 30.02F RICHLANDS CLOUDY 75 66 73 N10 30.00F ROANOKE RAPIDS NOT AVBL ROCKY MOUNT MOSUNNY 79 61 53 NE10 30.04F WASHINGTON CLOUDY 74 67 77 NE12G17 30.03F WHITEVILLE CLOUDY 76 65 69 N5 29.98F $$ AMZ130-135-150-152-154-156-158-170-250-252-270-ANZ085-086-088-633-658-670-202200- MARINE OBSERVATIONS STATION/POSITION TIME TEMP WIND PRES WAVE SWELL AIR SEA DIR/SP/G HT/PER HT/PER (UTC) (F) (DEG/KT/KT) (MB) (FT/S) (FT/S) CHESAPEAKE LIGHT 2000 71 60/ 21/ 22 1019.1 BUOY 44014 2100 74 77 30/ 16/ 19 1017.0 9/ 9 7/ 9 DUCK 2100 72 74 40/ 24/ 26 1016.4 2E DUCK 2100 N/A 6/ 9 2/11 OREGON INLET 2100 74 73 20/ 12/ 16 1016.5 BUOY 44095 2100 74 N/A 8/10 3/11 20E OREGON INLET NOT AVBL HATTERAS CG 2100 74 73 40/ 7/ 12 1016.4 DIAMOND BUOY 2100 76 170/ 8/ 14 1015.5 7/10 7/10 CAPE LOOKOUT 2000 74 20/ 14/ 20 1015.4 BEAUFORT LAB 2100 74 75 20/ 9/ 14 1014.9 30 SE NEW RIVER 2100 76 83 30/ 21/ 25 1014.4 6/ 5 3/10 5 SE WRIGHTSVILL 2000 73 80 30/ 19/ 23 N/A BUOY 41002 1953 77 82 180/ 16/ 21 1011.1 10/ 9 7/ 9 BUOY 41004 2100 77 82 10/ 21/ 27 1011.7 8/ 7 $$

USA.gov is the U.S. government's official web portal to all federal, state and local government web resources and services.